FW4185 Weather Reports


Display with metric or nautical units.
time (UTC)temp
F
wind
direction
speed
MPH
gust
MPH
rain 1hr
in
rain 24hr
in
rain mn
in
humidity
%
barometer
mb
20260904052604 70 357 0.0 0.0 0.00 0.00 0.00 82 1013.7
20260904051924 70 357 0.0 0.0 0.00 0.00 0.00 83 1013.7
20260904051244 0 357 0.0 0.0 0.00 0.00 0.00
20260904050455 71 358 0.0 0.0 0.00 0.00 0.00 83 1013.9
20260904045442 0 356 0.0 0.0 0.00 0.00 0.00
20260904044318 72 358 0.0 0.0 0.00 0.00 0.00 84 1013.9
20260904043638 72 358 0.0 0.0 0.00 0.00 0.00 84 1013.8
20260904042958 0 356 0.0 0.0 0.00 0.00 0.00
20260904042205 73 356 0.0 0.0 0.00 0.00 0.00 83 1013.8
20260904041526 0 356 0.0 0.0 0.00 0.00 0.00
20260904040624 73 357 0.0 0.0 0.00 0.00 0.00 84 1013.9
20260904035944 73 356 0.0 0.0 0.00 0.00 0.00 84 1013.9
20260904035306 0 355 0.0 0.0 0.00 0.00 0.00
20260904034136 73 356 0.0 0.0 0.00 0.00 0.00 84 1013.9
20260904033457 73 358 0.0 0.0 0.00 0.00 0.00 82 1013.8
20260904032818 0 356 0.0 0.0 0.00 0.00 0.00
20260904031658 73 357 0.0 8.0 0.00 0.00 0.00 81 1013.6
20260904031018 73 355 3.0 9.0 0.00 0.00 0.00 79 1013.6
20260904030337 73 357 4.0 9.0 0.00 0.00 0.00 80 1013.5
20260904025659 74 356 0.0 10.0 0.00 0.00 0.00 79 1013.6
20260904025017 73 357 4.0 10.0 0.00 0.00 0.00 81 1013.6
20260904024337 74 356 5.0 9.0 0.00 0.00 0.00 81 1013.6
20260904023658 0 357 0.0 14.0 0.00 0.00 0.00
20260904022903 73 354 7.0 14.0 0.00 0.00 0.00 83 1013.6
20260904022224 0 356 7.0 8.0 0.00 0.00 0.00
20260904021516 74 357 5.0 11.0 0.00 0.00 0.00 84 1013.6
20260904020836 74 354 6.0 12.0 0.00 0.00 0.00 84 1013.7
20260904020156 74 354 7.0 12.0 0.00 0.00 0.00 84 1013.7
20260904015532 74 355 7.0 14.0 0.00 0.00 0.00 82 1013.6
20260904014836 74 356 6.0 14.0 0.00 0.00 0.00 80 1013.6
20260904014201 0 355 5.0 3.0 0.00 0.00 0.00
20260904013406 74 354 7.0 16.0 0.00 0.00 0.00 84 1013.5
20260904012726 74 354 8.0 16.0 0.00 0.00 0.00 83 1013.1
20260904012056 74 352 10.0 17.0 0.00 0.00 0.00 84 1013.0
20260904011407 74 358 10.0 18.0 0.00 0.00 0.00 86 1012.8
20260904010736 74 355 11.0 19.0 0.00 0.00 0.00 88 1012.8
20260904010052 74 355 12.0 19.0 0.00 0.00 0.00 90 1012.8
20260904005407 0 354 10.0 8.0 0.00 0.00 0.00
20260904004402 75 356 10.0 19.0 0.00 0.00 0.00 89 1012.4
20260904003714 0 353 11.0 7.0 0.00 0.00 0.00
20260904002911 0 355 9.0 8.0 0.00 0.00 0.00
20260904002119 75 356 9.0 16.0 0.00 0.00 0.00 88 1012.2
20260904001444 75 352 9.0 17.0 0.00 0.00 0.00 87 1012.2
20260904000759 0 355 11.0 10.0 0.00 0.00 0.00
20260903235953 75 356 9.0 18.0 0.00 0.00 0.00 85 1012.4
20260903235314 75 356 9.0 14.0 0.00 0.00 0.00 85 1012.5
20260903234633 75 352 8.0 12.0 0.00 0.00 0.00 86 1012.6
20260903233954 0 356 9.0 9.0 0.00 0.00 0.00
20260903233253 0 356 10.0 10.0 0.00 0.00 0.00
20260903232504 0 356 10.0 11.0 0.00 0.00 0.00
20260903231707 0 355 9.0 7.0 0.00 0.00 0.00
20260903230915 76 354 9.0 14.0 0.00 0.00 0.00 81 1012.6
20260903230234 76 357 8.0 12.0 0.00 0.00 0.00 82 1012.6
20260903225554 76 352 6.0 10.0 0.00 0.00 0.00 82 1012.7
20260903224914 76 354 7.0 11.0 0.00 0.00 0.00 82 1012.8
20260903224244 0 0 6.0 6.0 0.00 0.00 0.00
20260903223443 76 354 8.0 11.0 0.00 0.00 0.00 79 1012.9
20260903222813 76 355 7.0 11.0 0.00 0.00 0.00 81 1013.0
20260903222123 76 356 0.0 0.0 0.00 0.00 0.00 81 1012.9
20260903221449 76 356 0.0 0.0 0.00 0.00 0.00 81 1012.9
20260903220804 76 358 0.0 0.0 0.00 0.00 0.00 81 1012.6
20260903220124 76 356 0.0 0.0 0.00 0.00 0.00 79 1012.4
20260903215454 76 356 0.0 0.0 0.00 0.00 0.00 78 1012.4
20260903214804 77 359 0.0 5.0 0.00 0.00 0.00 78 1012.4
20260903214124 0 357 0.0 5.0 0.00 0.00 0.00
20260903213221 77 358 0.0 0.0 0.00 0.00 0.00 79 1012.0
20260903212551 0 356 0.0 0.0 0.00 0.00 0.00
20260903211751 0 359 0.0 4.0 0.00 0.00 0.00
20260903210936 77 357 0.0 0.0 0.00 0.00 0.00 78 1012.3
20260903210150 76 357 0.0 6.0 0.00 0.00 0.00 77 1012.4
20260903205504 76 358 0.0 0.0 0.00 0.00 0.00 77 1012.4
20260903204829 76 357 0.0 0.0 0.00 0.00 0.00 79 1012.3
20260903204145 76 355 0.0 9.0 0.00 0.00 0.00 78 1012.6
20260903203505 76 356 5.0 9.0 0.00 0.00 0.00 79 1012.7
20260903202825 76 355 0.0 0.0 0.00 0.00 0.00 79 1012.8
20260903201910 0 357 1.0 7.0 0.00 0.00 0.00
20260903201158 76 355 2.0 10.0 0.00 0.00 0.00 80 1013.1
20260903200512 76 354 4.0 10.0 0.00 0.00 0.00 80 1013.3
20260903195843 0 357 4.0 10.0 0.00 0.00 0.00
20260903195126 77 355 6.0 10.0 0.00 0.00 0.00 78 1013.4
20260903194446 0 356 0.0 0.0 0.00 0.00 0.00
20260903193545 76 357 0.0 9.0 0.00 0.00 0.00 78 1013.4
20260903192522 77 354 0.0 9.0 0.00 0.00 0.00 77 1013.4
20260903191842 76 355 3.0 9.0 0.00 0.00 0.00 79 1013.7
20260903191212 76 355 2.0 10.0 0.00 0.00 0.00 77 1013.6
20260903190522 0 355 2.0 10.0 0.00 0.00 0.00
20260903185725 77 354 3.0 9.0 0.00 0.00 0.00 74 1013.7
20260903185041 78 356 3.0 8.0 0.00 0.00 0.00 72 1013.6
20260903184403 76 354 3.0 8.0 0.00 0.00 0.00 75 1013.6
20260903183730 77 359 0.0 9.0 0.00 0.00 0.00 74 1013.6
20260903183040 78 354 3.0 9.0 0.00 0.00 0.00 72 1013.6
20260903182401 78 356 3.0 9.0 0.00 0.00 0.00 72 1013.6
20260903181720 0 357 5.0 9.0 0.00 0.00 0.00
20260903180925 76 357 5.0 10.0 0.00 0.00 0.00 76 1013.7
20260903180255 77 353 1.0 10.0 0.00 0.00 0.00 76 1013.7
20260903175608 76 354 5.0 10.0 0.00 0.00 0.00 75 1013.8
20260903174803 77 354 4.0 9.0 0.00 0.00 0.00 72 1013.6
20260903174123 77 354 1.0 9.0 0.00 0.00 0.00 74 1013.7
20260903173448 0 355 5.0 6.0 0.00 0.00 0.00
20260903172512 77 355 3.0 9.0 0.00 0.00 0.00 74 1013.9
20260903171842 77 357 3.0 9.0 0.00 0.00 0.00 75 1013.9
20260903171153 0 355 5.0 6.0 0.00 0.00 0.00
20260903170336 76 354 4.0 9.0 0.00 0.00 0.00 76 1013.8
20260903165657 0 357 4.0 10.0 0.00 0.00 0.00
20260903164909 77 354 5.0 8.0 0.00 0.00 0.00 73 1014.0
20260903164220 0 355 2.0 2.0 0.00 0.00 0.00
20260903163414 77 356 4.0 10.0 0.00 0.00 0.00 75 1014.0
20260903162724 77 356 3.0 10.0 0.00 0.00 0.00 73 1014.0
20260903162054 77 353 4.0 10.0 0.00 0.00 0.00 74 1014.0
20260903161404 0 357 4.0 2.0 0.00 0.00 0.00
20260903160615 78 356 1.0 10.0 0.00 0.00 0.00 71 1014.0
20260903155827 76 356 6.0 11.0 0.00 0.00 0.00 75 1014.1
20260903155147 0 352 6.0 6.0 0.00 0.00 0.00
20260903154249 75 357 0.0 4.0 0.00 0.00 0.00 77 1014.1
20260903153615 0 359 3.0 4.0 0.00 0.00 0.00
20260903152813 75 355 4.0 9.0 0.00 0.00 0.00 77 1014.3
20260903152143 75 357 3.0 9.0 0.00 0.00 0.00 76 1014.2
20260903151503 75 354 6.0 9.0 0.00 0.00 0.00 76 1014.3
20260903150813 0 356 5.0 7.0 0.00 0.00 0.00
20260903145947 74 356 5.0 7.0 0.00 0.00 0.00 76 1014.1
20260903145046 0 355 6.0 4.0 0.00 0.00 0.00
20260903144253 74 353 6.0 10.0 0.00 0.00 0.00 76 1014.2
20260903143613 75 354 5.0 10.0 0.00 0.00 0.00 76 1014.1
20260903142938 74 357 6.0 9.0 0.00 0.00 0.00 75 1014.1
20260903142258 0 356 5.0 8.0 0.00 0.00 0.00
20260903141237 75 354 5.0 10.0 0.00 0.00 0.00 74 1014.1
20260903140602 76 355 6.0 9.0 0.00 0.00 0.00 71 1014.1
20260903135918 0 356 2.0 5.0 0.00 0.00 0.00
20260903135023 75 359 0.0 0.0 0.00 0.00 0.00 78 1014.1
20260903134338 75 357 0.0 0.0 0.00 0.00 0.00 81 1014.2
20260903133658 74 357 0.0 0.0 0.00 0.00 0.00 84 1014.2
20260903133018 73 357 0.0 0.0 0.00 0.00 0.00 85 1014.3
20260903132338 0 355 0.0 0.0 0.00 0.00 0.00
20260903131545 73 358 0.0 0.0 0.00 0.00 0.00 84 1014.3
20260903130724 73 357 0.0 0.0 0.00 0.00 0.00 84 1014.3
20260903130049 0 351 0.0 0.0 0.00 0.00 0.00
20260903125337 73 356 0.0 0.0 0.00 0.00 0.00 84 1014.3
20260903124657 73 358 0.0 0.0 0.00 0.00 0.00 85 1014.4
20260903124017 73 356 0.0 0.0 0.00 0.00 0.00 85 1014.5
20260903123338 72 358 0.0 0.0 0.00 0.00 0.00 85 1014.5
20260903122659 72 357 0.0 0.0 0.00 0.00 0.00 85 1014.6
20260903122017 0 357 0.0 0.0 0.00 0.00 0.00
20260903121040 72 359 0.0 0.0 0.00 0.00 0.00 85 1014.6
20260903120400 72 356 0.0 0.0 0.00 0.00 0.00 84 1014.6
20260903115720 72 357 0.0 0.0 0.00 0.00 0.00 84 1014.5
20260903115040 72 357 0.0 0.0 0.00 0.00 0.00 84 1014.5
20260903114401 0 357 0.0 0.0 0.00 0.00 0.00
20260903113610 0 356 0.0 0.0 0.00 0.00 0.00
20260903112512 72 355 0.0 0.0 0.00 0.00 0.00 85 1014.3
20260903111834 0 359 0.0 0.0 0.00 0.00 0.00
20260903110921 72 356 0.0 0.0 0.00 0.00 0.00 84 1013.9
20260903110245 72 355 0.0 0.0 0.00 0.00 0.00 84 1013.8
20260903105601 72 356 0.0 0.0 0.00 0.00 0.00 84 1013.7
20260903104921 73 356 0.0 0.0 0.00 0.00 0.00 84 1013.8
20260903104241 73 359 0.0 0.0 0.00 0.00 0.00 85 1013.7
20260903103600 73 357 0.0 0.0 0.00 0.00 0.00 87 1013.6
20260903102920 73 353 0.0 0.0 0.00 0.00 0.00 88 1013.5
20260903102240 73 356 0.0 0.0 0.00 0.00 0.00 88 1013.4
20260903101600 73 356 0.0 0.0 0.00 0.00 0.00 88 1013.3
20260903100922 0 356 0.0 0.0 0.00 0.00 0.00
20260903095916 72 355 0.0 0.0 0.00 0.00 0.00 89 1013.4
20260903095127 0 354 0.0 6.0 0.00 0.00 0.00
20260903094158 72 355 0.0 8.0 0.00 0.00 0.00 88 1013.4
20260903093518 0 358 1.0 8.0 0.00 0.00 0.00
20260903092729 0 355 6.0 5.0 0.00 0.00 0.00
20260903091938 70 356 4.0 7.0 0.00 0.00 0.00 86 1012.9
20260903091258 70 356 5.0 8.0 0.00 0.00 0.00 86 1012.8
20260903090618 70 355 5.0 8.0 0.00 0.00 0.00 87 1012.9
20260903085939 0 357 0.0 2.0 0.00 0.00 0.00
20260903085150 0 359 0.0 0.0 0.00 0.00 0.00
20260903084402 0 356 0.0 0.0 0.00 0.00 0.00
20260903083610 0 359 0.0 0.0 0.00 0.00 0.00
20260903082825 69 355 0.0 0.0 0.00 0.00 0.00 86 1013.0
20260903082140 69 356 0.0 0.0 0.00 0.00 0.00 85 1012.9
20260903081501 69 357 0.0 0.0 0.00 0.00 0.00 85 1012.6
20260903080820 69 356 0.0 0.0 0.00 0.00 0.00 85 1012.4
20260903080145 69 356 0.0 0.0 0.00 0.00 0.00 85 1012.4
20260903075500 69 355 0.0 0.0 0.00 0.00 0.00 85 1012.5
20260903074821 0 357 0.0 0.0 0.00 0.00 0.00
20260903074029 69 357 0.0 0.0 0.00 0.00 0.00 85 1012.5
20260903073350 70 356 0.0 0.0 0.00 0.00 0.00 85 1012.5
20260903072710 0 357 0.0 0.0 0.00 0.00 0.00
20260903071922 70 354 0.0 7.0 0.00 0.00 0.00 85 1012.5
20260903071244 70 354 3.0 8.0 0.00 0.00 0.00 85 1012.6
20260903070603 70 357 6.0 8.0 0.00 0.00 0.00 85 1012.5
20260903065922 70 357 0.0 7.0 0.00 0.00 0.00 85 1012.4
20260903065242 70 356 3.0 7.0 0.00 0.00 0.00 84 1012.6
20260903064603 0 354 6.0 6.0 0.00 0.00 0.00
20260903063814 0 354 6.0 7.0 0.00 0.00 0.00
20260903062918 0 356 7.0 7.0 0.00 0.00 0.00
20260903062127 70 355 6.0 11.0 0.00 0.00 0.00 81 1013.3
20260903061448 70 355 5.0 16.0 0.00 0.00 0.00 83 1013.4
20260903060809 0 356 9.0 4.0 0.00 0.00 0.00
20260903060018 70 354 7.0 14.0 0.00 0.00 0.00 85 1013.4
20260903055338 70 355 8.0 14.0 0.00 0.00 0.00 85 1013.4
20260903054659 0 355 9.0 10.0 0.00 0.00 0.00
20260903053506 70 356 5.0 8.0 0.00 0.00 0.00 87 1013.1
20260903052826 70 356 3.0 9.0 0.00 0.00 0.00 86 1013.2